HELLAS-SAT 3 (42814 NORAD) Tracking and Keplerian Element Data

This shows tracking and keplerian element data for the satellite.

Feedback or suggestion? Click here.




ElementValue
Catalog42814
NameHELLAS-SAT 3
Epoch Orbit541
Epoch Day348.66038373
Epoch Year2018
RAAN57.278
Inclination0.0747
Eccentricity0.000221
Argument of Perigee263.3842
Mean Anonmoly39.3352
Mean Motion1.00272277
Decay Rate1.63E-06
L11 42814U 17040A 18348.66038373 .00000163 00000-0 00000-0 0 9991
L22 42814 0.0747 57.2780 0002210 263.3842 39.3352 1.00272277 5414

Live tracking and technical data element details for HELLAS-SAT 3 (NORAD 42814). HELLAS-SAT 3 can be tracked NOW for your location showing map with azimuth and elevation plus other details from your city location.

Track the satellite on the map from your city or location and see movement details for azimuth, elevation, latitude, longitude, range, height, and movement on the map or in text.







IsCatalogInMostPopularTable: catalog: 42814, numindb: 115
Update: records affected: 1



GetName: 42814 HELLAS-SAT 3

Hit Count: updated at: Sat, 15 Dec 2018 13:13:09 GMT